Regional Weather Roundup
Issued by NWS Boston, MA

Current Version | Previous Version | Text Only | Print | Product List | Glossary Off
Versions: 1 2 3 4 5 6 7 8 9 10 11 12 13 14 15 16 17 18 19 20 21 22 23 24 25 26 27 28

000
ASUS41 KBOX 260810
RWRBOX

REGIONAL WEATHER ROUNDUP
NATIONAL WEATHER SERVICE TAUNTON MA
400 AM EDT FRI MAY 26 2017

NOTE:  "FAIR" INDICATES FEW OR NO CLOUDS BELOW 12,000 FEET WITH NO
SIGNIFICANT WEATHER AND/OR OBSTRUCTIONS TO VISIBILITY.

MAZALL-260900-
EASTERN MASSACHUSETTS

CITY           SKY/WX    TMP DP  RH WIND       PRES   REMARKS
BOSTON         DRIZZLE   49  48  97 N20G26    29.50F
BEVERLY        LGT RAIN  50  48  93 N18G24    29.52F
LAWRENCE       RAIN      50  48  93 N16       29.55F
BEDFORD        LGT RAIN  49  45  86 N14G23    29.50F
BLUE HILL        N/A     47  46  97 N21G35    29.46F
NORWOOD        CLOUDY    50  49  96 N9        29.48F
MARSHFIELD     LGT RAIN  52  52 100 VRB8G20   29.48S
PLYMOUTH       CLOUDY    52  50  93 N8        29.48F
TAUNTON        LGT RAIN  51  49  92 N7        29.48S
NEW BEDFORD    LGT RAIN  52  52 100 CALM      29.47S FOG
$$

MAZALL-260900-
CAPE COD AND THE ISLANDS

CITY           SKY/WX    TMP DP  RH WIND       PRES   REMARKS
FALMOUTH         N/A    N/A N/A N/A MISG        N/A
HYANNIS        CLOUDY    59  58  96 S7        29.47R
CHATHAM        CLOUDY    57  57 100 VRB6      29.50R FOG
PROVINCETOWN   CLOUDY    53  52  96 NW6       29.48F
NANTUCKET      CLOUDY   N/A N/A N/A S14       29.50S
MARTHAS VNYRD  CLOUDY    58  56  93 S8        29.47F
$$

MAZALL-260900-
CENTRAL AND WESTERN MASSACHUSETTS

CITY           SKY/WX    TMP DP  RH WIND       PRES   REMARKS
WORCESTER      LGT RAIN  46  44  93 NE13G25   29.48F
FITCHBURG      RAIN      50  48  93 NE10      29.51F
ORANGE         LGT RAIN  49  48  97 NE14G21   29.49R
SPRINGFIELD    LGT RAIN  50  48  93 N7        29.49S FOG
WESTFIELD      HVY RAIN  50  50 100 N6        29.51R FOG
NORTH ADAMS    LGT RAIN  50  48  93 CALM      29.48F
PITTSFIELD     LGT RAIN  48  46  93 CALM      29.48F FOG
$$

RIZALL-260900-
RHODE ISLAND

CITY           SKY/WX    TMP DP  RH WIND       PRES   REMARKS
PROVIDENCE     LGT RAIN  51  51 100 N9        29.49R
NEWPORT        RAIN      53  53 100 N10       29.46F
BLOCK ISLAND   LGT RAIN  53  53 100 SE5       29.47F
SMITHFIELD     LGT RAIN  49  48  97 NE9       29.49S
WESTERLY       LGT RAIN  53  52  96 N6        29.46F
$$

CTZALL-260900-
CONNECTICUT

CITY           SKY/WX    TMP DP  RH WIND       PRES   REMARKS
BRADLEY INTL   LGT RAIN  50  50 100 N9        29.51R FOG
HARTFORD       RAIN      52  50  93 N7        29.50S
BRIDGEPORT     LGT RAIN  54  50  86 NE13      29.47S
DANBURY        LGT RAIN  51  51 100 NE5       29.50R
GROTON         LGT RAIN  53  51  93 N6        29.46F
NEW HAVEN      RAIN      52  50  93 NE16      29.46S FOG
CHESTER        NOT AVBL
MERIDEN        LGT RAIN  51  49  92 N6        29.49S
WILLIMANTIC    HVY RAIN  52  50  93 N5        29.50S FOG
OXFORD           N/A     50  45  81 NE10G18   29.49S
$$

MEZ002-015-021-024-NHZ003-005-008-011-012-014-VTZ005-008-260900-
NORTHERN NEW ENGLAND

CITY           SKY/WX    TMP DP  RH WIND       PRES   REMARKS
PORTLAND ME    HVY RAIN  48  47  96 E9        29.63R FOG
BANGOR ME      LGT RAIN  47  46  97 NE12      29.70F FOG
CONCORD NH     RAIN      49  47  93 NE7       29.58F FOG
MANCHESTER NH  HVY RAIN  49  46  90 NE15      29.56F FOG
NASHUA NH      RAIN      48  48 100 NE12G18   29.54F
PORTSMOUTH NH  RAIN      48  46  93 NE12      29.56S FOG
JAFFREY NH     LGT RAIN  48  48 100 NE8       29.52F
KEENE NH       LGT RAIN  50  48  93 N9        29.49F
BURLINGTON VT  CLOUDY    55  53  93 CALM      29.58S
MT. WASHINGTON RAIN      34  34 100 E23         N/A  VSB 0   WCI  22
$$

NYZ052-076-260900-
EASTERN NEW YORK

CITY           SKY/WX    TMP DP  RH WIND       PRES   REMARKS
ALBANY         LGT RAIN  53  50  89 NW7       29.50F
NEW YORK CITY  CLOUDY    57  54  89 N6        29.48R
$$

ANZALL-260900-
MARINE OBSERVATIONS

STATION/POSITION TIME  TEMP    WIND        PRES    VSBY  WAVE
                       AIR SEA DIR/SP/G                  HT/PER
                 (UTC) (F)     (DEG/KT/KT) (MB)    (MI)  (FT/S)
BOSTON BUOY      0650   51 53  360/ 14/ 16  999.3          6/ 8
BUZZARDS BAY     0700   55     120/  8/ 11  998.8R
NANTUCKET SOUND  0750      53               998.3R         1/ 7
MASS BAY-STELLWA 0704   50 52  360/ 16/ 17  999.2R         5/ 8
ISLE OF SHOALS   0700   48      30/ 27/ 31 1000.1F
S OF BLOCK IS    0755      53                N/A           7/ 8
$$

......................KEY.........................
  SKY/WX - SKY CONDITION/PRESENT WEATHER
  TMP    - TEMPERATURE IN FAHRENHEIT
  DWPT   - DEWPOINT IN FAHRENHEIT
  RH     - RELATIVE HUMIDITY IN PERCENT
  WIND   - DIRECTION AND SPEED IN MPH
  PRES   - MEAN SEA LEVEL PRESSURE IN INCHES OF HG
  WCI    - WIND CHILL INDEX
  VSB    - VISIBILITY IN MILES
  HX     - HEAT INDEX
  TC     - TEMPERATURE IN CELSIUS
  VRB    - VARIABLE WIND DIRECTION
  N/A    - NOT AVAILABLE




USA.gov is the U.S. government's official web portal to all federal, state and local government web resources and services.